Погода Улан-Удэ

Погода Улан-Удэ : погода сейчас, прогноз погоды и архив. Всё, что Вы хотите узнать о погоде Улан-Удэ!

Поиск расширенной информации на нашем сайте:

Другие новости

Новости СМИ2

Главная страница сайта

Новости сайта

02.10.2013

Напоминаем, что на нашем новом сайте вы можете получить высокодетализированные прогнозы погоды по пунктам России, СНГ и мира (включающие важные для авиации метеовеличины, такие как направление и скорость ветра, видимость, явления погоды, количество и форма облачности, нижняя и верхняя граница облачности), а также ознакомиться с разнообразными материалами по авиационной метеорологии и подборкой полезных ссылок на эту тему.

Сайт Метеоцентр.Азия посвящён разработке технологий оптимизации авиаметеорологического обслуживания, включая проектирование и перспективное создание нескольких автоматизированных авиаметеорологических систем:
- система выпуска высокодетальных прогностических карт явлений погоды для нижнего воздушного пространства по России и ближнему зарубежью;
- система верификации прогнозов TAF (выпускаемых синоптиками официальных АМСГ РФ и ближнего зарубежья) и AUTOTAF (выпускаемых сайтом Метеоцентр.Азия) - выявление ошибок, онлайн-сопоставление с фактической погодой METAR, автоматическое внесение коррективов в прогнозы при резком отклонении фактической погоды от прогноза, подсчёт оправдываемости прогнозов по элементам и в целом;
- система обработки, анализа и отображения авиаметеорологической информации для применения провайдерами метеорологической информации.

Рекомендуем: Сравнить цены на мойку.

Погода Улан-Удэ - сегодня

Время (UTC), дата Ветер
(°,м/с) 
Видим.   Явления Облачность Т
(°С)
Тd
(°С)
f(%) Тe
(°С)
Pmin
(гПа)
dP
(гПа)
Po
(мм)
O2
(г/м3)
Тmin Tmax R s Состояние
почвы
03 26.04.17 270 (З) 20000 м    9/0 верхняя 
[Ci sp]
+12.5 -8.4 22 +14  1028.9  -0.8  726  280           
06 26.04.17 330 (СЗ) 20000 м    5/0 верхняя 
[Ci sp]
+19 -10.1 13 +20  1025.3  -2.2  724  274           
09 26.04.17 300 (СЗ) 20000 м    3/0 верхняя 
[Ci fib]
+19.6 -10.3 12 +20  1022.9  -2.1  723  273           
12 26.04.17 250 (З) 20000 м    4/0 средняя, верхняя 
[Ac lent|Ci sp]
+15.8 -9.6 16 +17  1022.3  -1.3  722  276    +19.6       
15 26.04.17 240 (ЮЗ) 20000 м    6/0 верхняя 
[Ci sp]
+12.8 -8.7 21 +13  1022.3  -0.7  721  278           
18 26.04.17 260 (З) 20000 м    ясно 
+9.1 -7.6 30 +10  1021.8  -1.2  720  282           
21 26.04.17 310 (СЗ) 20000 м    1/0 верхняя 
[Ci fib]
+4.6 -4.4 52 +5  1022.5  -0.2  720  286           
00 27.04.17 300 (СЗ) 20000 м  дым  10/0 средняя, верхняя 
[As op|Ci sp]
+6.8 -4.2 45 +8  1022.4  0.4  721  284  +3.8         
03 27.04.17 250 (З) 20000 м  дым  10/0 верхняя 
[Ci sp]
+15.1 -4 26 +15  1020  -0.6  720  275           
06 27.04.17 320 (СЗ) 20000 м  дым  10/4 1000 м кучево-дожд., верхняя 
[Cb cap|Ci sp]
+19.6 -2.4 22 +20  1016.8  -2.1  719  270           
09 27.04.17 320 (СЗ) 10 км  дым  9/0 верхняя 
[Ci sp]
+20 -2.2 22 +20  1014.8  -1.8  717  269           
12 27.04.17 240 (ЮЗ) 4000 м  мгла  3/0 верхняя 
[Ci sp]
+18 -1.7 26 +19  1013.4  -1.7  716  271    +21       
15 27.04.17 200 (Ю) 20000 м  дым  4/0 верхняя 
[Ci sp]
+11.9 -1.2 40 +13  1014.4  -0.3  716  276           
18 27.04.17 230 (ЮЗ) 20000 м  дым  6/0 верхняя 
[Ci sp]
+6.7 -1.1 57 +8  1014.9  -0.6  715  281           
21 27.04.17 090 (В) 10 км  дым  6/0 верхняя 
[Ci sp]
+4.7 -1.9 62 +4  1014.7  -0.8  715  283           
00 28.04.17 250 (З) 4000 м  мгла  8/0 верхняя 
[Ci fib]
+7.2 -0.8 57 +7  1013.2  -0.7  714  280  +3.9         
03 28.04.17 290 (З) 20000 м  дым  10/0 верхняя 
[Cs]
+19.3 -1.3 25 +20  1008.4  -2.1  713  268           
06 28.04.17 290 (З) 9-15{15}  20000 м    8/0 верхняя 
[Ci fib]
+25.4 -4.7 13 +25  1004.4  -2.6  711  262           
09 28.04.17 280 (З) 7-15{16}  20000 м    10/0 верхняя 
[Ci fib]
+26.5 -5.2 12 +27  1001.8  -2.2  709  261           
12 28.04.17 280 (З) 4{15}  4000 м  мгла  10/0 верхняя 
[Ci fib]
+22.3 -5.5 15 +22  1002.3  -0.3  709  264    +26.5       
15 28.04.17 350 (С) 10 км  дым  10/0 средняя, верхняя 
[Ac trans|Ci fib]
+20.6 -1.3 23 +21  1004.1  1.4  710  266           
18 28.04.17 020 (С) 4{10}  10 км  дым  10/0 средняя 
[Ac und]
+17.9 -1.2 27 +18  1007.1  2.2  711  269           
21 28.04.17 310 (СЗ) 20000 м  дым  10/0 средняя, верхняя 
[Ac trans|Ci fib]
+12.9 -3.5 32 +13  1010.4  2.1  713  275           
00 29.04.17 310 (СЗ) 20000 м  дым  10/0 верхняя 
[Ci fib]
+13.8 -4.1 29 +14  1012.2  1.9  714  274  +11.6         
03 29.04.17 310 (СЗ) 20000 м    1/0 средняя 
[Ac trans]
+17.5 -8.5 16 +18  1011.5  0.1  714  271           
Время (UTC), дата Ветер
(°,м/с) 
Видим.   Явления Облачность Т
(°С)
Тd
(°С)
f(%) Тe
(°С)
Pmin
(гПа)
dP
(гПа)
Po
(мм)
O2
(г/м3)
Тmin Tmax R s Состояние
почвы

Для получения пояснительной информации подведите курсор к названию столбца.

ПОГОДА Улан-Удэ - архив

Всё, что Вы хотите узнать о погоде Улан-Удэ - удобно и подробно!

Выберите нужную дату (начиная с 1 января 2015* года) и нажмите кнопку "Найти".
Будут отображены архивные сводки погоды по пункту Улан-Удэ, начиная с указанной даты.


Отображать данные в формате CSV (для использования в таблицах Excel)


Внимание! Наш архив погоды предназначен исключительно для личного некоммерческого использования в познавательных целях. Если Вам необходимы официальные справки о состоянии погоды (для производственных, юридических, коммерческих и т.п. целей), обращайтесь в органы Росгидромета.

*Примечание: данная дата относится к архиву по метеостанциям СССР (Россия, СНГ, Балтия).
Архив по метеостанциям Зарубежной Европы и Азии (кроме Китая) хранится 10 дней, по другим регионам земного шара (Китай, Африка, Америка, Австралия, Океания) - 1 день.

Улан-Удэ - район местоположения метеостанции


Название, широта, долгота, высота метеостанции:
Улан-Удэ (город) 51.8°ш. 107.5°д. 530 м над ур. моря [Российская Федерация]

Дополнительная информация

В oтличие oт бoльшинства пoгoдных сайтoв мы публикуем пoдрoбную метеoинфoрмацию в детальнoм прoфессиoнальнoм фoрмате.

Характеристики температуры и влажнoсти вoздуха измеряются на высoте 2 м в тени вдали oт зданий и деревьев.
Скoрoсть ветра измеряется на высoте 10 м (на урoвне рoста челoвека скoрoсть ветра ниже в 1.5-2 раза). Если метеoстанция нахoдится в гoрoде или в лесу, тo скoрoсть ветра занижена на 2-4 м/с пo сравнению с oткрытым местoм. Скoрoсть ветра над акватoриями крупных рек и oзёр, а также на вершинах хoлмoв на 2-5 м/с выше, чем в oбычных услoвиях.
Атмoсфернoе давление в разных тoчках местнoсти мoжет значительнo oтличаться oт давления на метеoстанции, в зависимoсти oт услoвий рельефа (при пoдъёме на 10 м давление пoнижается примернo на 1 мм рт.ст.).